Weather Roundup
Issued by NWS Springfield, MO

Home | Current Version | Previous Version | Text Only | Print | Product List | Glossary On
Versions: 1 2 3 4 5 6 7 8 9 10 11 12 13 14 15 16 17 18 19 20 21 22 23 24 25 26 27 28 29 30 31 32 33 34 35 36 37 38 39 40 41 42 43 44 45 46 47 48 49 50
000
NZUS99 KSGF 051959
HRRSGF

HOURLY WEATHER
NATIONAL WEATHER SERVICE SPRINGFIELD MO
300 PM CDT SUN JUL 05 2015

......SGF CWA......

CITY           SKY/WX    TMP DP  RH WIND       PRES   REMARKS
SPRINGFIELD    PTSUNNY   87  73  62 SE7       30.00F HX  94
JOPLIN         MOSUNNY   89  76  65 S8        29.98F HX 100
WEST PLAINS    PTSUNNY   82  69  64 E8        30.07F
ROLLA          MOSUNNY   84  69  60 S8        30.03F
OSAGE BEACH    PTSUNNY   86  72  62 SE8       30.01F HX  92
BRANSON        PTSUNNY   82  73  74 E17       30.04F

......SURROUNDING SGF CWA......

CITY           SKY/WX    TMP DP  RH WIND       PRES   REMARKS
CHANUTE        MOSUNNY   91  74  57 S13G21    29.94F HX 100
PARSONS        PTSUNNY   90  76  63 S8        29.95F HX 101
COFFEYVILLE    PTSUNNY   91  75  59 S8        29.94F HX 101
EMPORIA        SUNNY     89  72  56 S16G24    29.91F HX  96
SILOAM SPRINGS PTSUNNY   88  73  62 SW12      30.01F HX  96
HARRISON AR    CLOUDY    72  69  90 S14G22    30.07R THUNDER
NEAR YELLVILLE   N/A     88  73  62 SE7       30.01F HX  96

......KANSAS AND MISSOURI......

CITY           SKY/WX    TMP DP  RH WIND       PRES   REMARKS
KANSAS CTY INT PTSUNNY   87  75  67 S16       29.93F HX  96
DOWNTOWN KC    PTSUNNY   88  74  63 S12       29.92F HX  96
COLUMBIA       PTSUNNY   85  70  60 S9        30.01F
SEDALIA        MOSUNNY   87  73  62 S8        30.00F HX  94
ST JOSEPH      PTSUNNY   88  73  61 S16       29.91F HX  95
ST LOUIS       MOSUNNY   88  64  44 SE7       30.04F
SPIRIT OF STL  MOSUNNY   86  68  54 S5        30.02F
KIRKSVILLE     CLOUDY    84  67  56 S13       30.00F
WICHITA        MOSUNNY   98  64  32 S20G26    29.87F HX 100
TOPEKA         PTSUNNY   89  72  56 SE15G21   29.90F HX  96
OLATHE         PTSUNNY   86  74  67 SE13      29.94F HX  94

......TENNESSEE......

CITY           SKY/WX    TMP DP  RH WIND       PRES   REMARKS
MEMPHIS        PTSUNNY   84  71  65 SW8       30.08F
NASHVILLE      PTSUNNY   84  69  60 NW7       30.08S

......ARKANSAS.......

CITY           SKY/WX    TMP DP  RH WIND       PRES   REMARKS
FAYETTEVILLE   PTSUNNY   84  74  71 S13       30.01F HX  91
FT SMITH       PTSUNNY   90  73  57 SW3       29.97F HX  98
LITTLE ROCK    PTSUNNY   85  73  67 S9        30.04F HX  91

......OKLAHOMA.......

CITY           SKY/WX    TMP DP  RH WIND       PRES   REMARKS
TULSA          MOSUNNY   93  74  53 S15       29.93F HX 103
PONCA CITY     MOSUNNY   95  69  42 S12G21    29.90F HX 100
MCALESTER      MOSUNNY   89  75  63 S10       29.98F HX  99
OKLAHOMA CITY  MOSUNNY   92  73  53 S16       29.94F HX 100

......IOWA............

CITY           SKY/WX    TMP DP  RH WIND       PRES   REMARKS
DES MOINES     PTSUNNY   86  69  56 S14       29.93S HX  90
QUAD CITIES    SUNNY     82  65  56 S9        30.01F

......ILLINOIS........

CITY           SKY/WX    TMP DP  RH WIND       PRES   REMARKS
QUINCY         MOSUNNY   85  68  56 S9        30.02S
CHICAGO        MOSUNNY   82  60  47 S7        30.04F



USA.gov is the U.S. government's official web portal to all federal, state and local government web resources and services.